P/2018 HT3 ( NEOWISE ) 2023

Japanese version
Home page
Updated on May 6, 2023

---------------------------------------------------------------------

* Profile

* Pictures

* Orbital Elements

Epoch 2023 Feb. 25.0 TT = JDT 2460000.5                                         
T 2023 Mar. 29.61969 TT                                 Rudenko                 
q   0.5189620            (2000.0)            P               Q                  
n   0.19204212     Peri.  216.36590     -0.68755435     -0.54827785             
a   2.9753522      Node   283.21203     +0.72613187     -0.52025825             
e   0.8255796      Incl.   29.27704     -0.00122987     -0.65476923             
P   5.13                                                                        
>From 67 observations 2012 Sept. 6-2023 Apr. 30, mean residual 0".3.             

* Finding Charts

* Magnitudes Graph

        m1 = 16.0 + 5 log d + 10.0 log r

        * Gray curve is:  H = 17.6  G = 0.15

---------------------------------------------------------------------

The orbital elements are published on M.P.E.C. 2023-J12.
The charts are made with StellaNavigator Ver.11 (AstroArts).
The magnitudes graphs are made with Comet for Windows.

---------------------------------------------------------------------

Copyright(C) Seiichi Yoshida (comet@aerith.net). All rights reserved.